Hourly Data Report for August 26, 2004

All times are specified in Local Standard Time (LST). Add 1 hour to adjust for Daylight Saving Time where and when it is observed.

TORONTO CITY
ONTARIO

43°40'00.000" N
79°24'00.000" W
112.50 m
6158355
71508
XTO

Download Data

Hourly Data (August 2004)
Hourly Data Report for August 26, 2004
TIME Temp Definition
°C
Dew Point Definition
°C
Rel Hum Definition
%
Wind Dir Definition
10's deg

Wind Spd Definition
km/h
Visibility Definition
km
Stn Press Definition
kPa
Hmdx Definition


Wind Chill Definition


Weather Definition


00:00 22.6 19.2 81 LegendMM LegendMM LegendMM 100.39 30   LegendNANA
01:00 22.2 18.7 81 LegendMM LegendMM LegendMM 100.41 29   LegendNANA
02:00 21.7 18.5 82 LegendMM LegendMM LegendMM 100.37 28   LegendNANA
03:00 21.4 18.6 84 LegendMM LegendMM LegendMM 100.38 28   LegendNANA
04:00 21.8 18.6 82 LegendMM LegendMM LegendMM 100.36 28   LegendNANA
05:00 21.7 18.2 81 LegendMM LegendMM LegendMM 100.39 28   LegendNANA
06:00
07:00 22.4 18.6 79 LegendMM LegendMM LegendMM 100.42 29   LegendNANA
08:00 22.9 18.4 76 LegendMM LegendMM LegendMM 100.42 29   LegendNANA
09:00 22.9 18.3 75 LegendMM LegendMM LegendMM 100.38 29   LegendNANA
10:00 22.9 19.2 80 LegendMM LegendMM LegendMM 100.35 30   LegendNANA
11:00 24.5 18.9 71 LegendMM LegendMM LegendMM 100.34 31   LegendNANA
12:00
13:00 24.3 18.6 71 LegendMM LegendMM LegendMM 100.31 31   LegendNANA
14:00 24.0 19.4 75 LegendMM LegendMM LegendMM 100.30 31   LegendNANA
15:00 22.1 20.0 88 LegendMM LegendMM LegendMM 100.28 30   LegendNANA
16:00 21.3 20.2 93 LegendMM LegendMM LegendMM 100.26 29   LegendNANA
17:00 22.0 20.4 91 LegendMM LegendMM LegendMM 100.28 30   LegendNANA
18:00 22.6 20.4 87 LegendMM LegendMM LegendMM 100.26 31   LegendNANA
19:00 22.4 20.1 87 LegendMM LegendMM LegendMM 100.27 30   LegendNANA
20:00 21.8 20.1 90 LegendMM LegendMM LegendMM 100.28 29   LegendNANA
21:00 21.9 20.3 91 LegendMM LegendMM LegendMM 100.30 30   LegendNANA
22:00
23:00 20.9 20.0 95 LegendMM LegendMM LegendMM 100.30 28   LegendNANA

Notes on Data Quality.

Legend

  • E = Estimated
  • M = Missing
  • NA = Not Available
Date modified: